Regional Weather Roundup
Issued by NWS New Orleans/Baton Rouge, LA

Home | Current Version | Previous Version | Text Only | Print | Product List | Glossary Off
Versions: 1 2 3 4 5 6 7 8 9 10 11 12 13 14 15 16 17 18 19 20 21 22 23 24 25 26 27 28 29 30 31 32 33 34 35 36 37 38 39 40 41 42 43 44 45 46 47 48 49 50

377
ASUS44 KLIX 230710
RWRLIX
NEW ORLEANS REGIONAL WEATHER ROUNDUP
NATIONAL WEATHER SERVICE NEW ORLEANS LA
200 AM CDT TUE SEP 23 2014

NOTE: "FAIR" INDICATES FEW OR NO CLOUDS BELOW 12,000 FEET WITH NO
      SIGNIFICANT WEATHER AND/OR OBSTRUCTIONS TO VISIBILITY.
      SKY/WX - SKY CONDITION AND SIGNIFICANT WEATHER.
      TMP - AIR TEMPERATURE.     DP    - DEWPOINT TEMPERATURE.
      RH  - RELATIVE HUMIDITY.   PRES  - PRESSURE.
      HI  - HEAT INDEX.          WCI   - WIND CHILL INDEX.

*  THESE STATIONS ARE NOT NWS OR FAA STATIONS AND ARE NOT UNDER
   NWS QUALITY CONTROL.

LAZ038-040-048-061>063-065>067-069-230800-
SOUTHEAST LOUISIANA

CITY           SKY/WX    TMP DP  RH WIND       PRES   REMARKS
N.O. AUDUBON     N/A     73  59  61 MISG        N/A
N.O. INTL ARPT PTCLDY    74  57  55 NE17G25   30.05R
N.O. LAKEFRONT CLEAR     75  60  59 NE26      30.05S
N.O. DOWNTOWN*   N/A     73  54  49 N6        30.05R
SLIDELL        CLEAR     63  55  75 N7        30.06S
BATON ROUGE    CLEAR     63  56  78 NE7       30.08R
BOOTHVILLE     MOCLDY    81  64  56 NE12      30.02R
BELLE CHASSE   CLEAR     71  55  56 NE9       30.04S
BOGALUSA*        N/A     61  55  79 N6        30.10S
GALLIANO*      NOT AVBL
NEW ROADS*       N/A     63  56  77 N7        30.09S
GONZALES*        N/A     66  59  78 NE3       30.06S
HAMMOND*       CLEAR     66  54  63 NE6       30.08F
HOUMA*         CLEAR     67  52  58 N5        30.04S
PORT FOURCHON* SUNNY     79  64  61 NE16G22   30.05S

$$

MSZ070-080>082-230800-
SOUTHERN MISSISSIPPI

CITY           SKY/WX    TMP DP  RH WIND       PRES   REMARKS
MCCOMB         CLEAR     64  53  67 N7        30.10S
GULFPORT       CLEAR     67  53  61 N7        30.05S
BILOXI         CLEAR     68  55  62 NE8       30.05S
PASCAGOULA     CLEAR     61  55  81 NE5       30.06R

$$

COASTAL OBSERVATIONS
LAKE AND NEARSHORE STATIONS

STATION/POSITION TIME  TEMP    WIND        PRES    WAVE
                       AIR SEA DIR/SP/G            HT/PER
                 (UTC) (F)     (DEG/KT/KT) (MB)    (FT/S)
PASCAGOULA       0700   69      30/  9/ 13 1017.2
WAVELAND YACHT   0700   70      30/ 17/ 19 1016.9
GRAND ISLE       0700   78 82   40/ 12/ 21 1017.0
SOUTHWEST PASS   0700   84 89   60/ 19/ 22 1016.4
NEW CANAL        0700   76 79   50/ 22/ 25 1017.5
SHELL BEACH      0700   77 77   40/ 21/ 24 1017.1

OFFSHORE STATIONS

STATION/POSITION TIME  TEMP    WIND        PRES    WAVE
                       AIR SEA DIR/SP/G            HT/PER
                 (UTC) (F)     (DEG/KT/KT) (MB)    (FT/S)
64 S DAUPHIN ISL 0606   81 83   70/ 19/ 23 1016.4    5/ 5

$$




USA.gov is the U.S. government's official web portal to all federal, state and local government web resources and services.